DW2633 Weather Reports


time (UTC)temp
C
wind
direction
speed
KPH
gust
KPH
rain 1hr
cm
rain 24hr
cm
rain mn
cm
humidity
%
barometer
mb
20260509204052 9 145 11.3 0.0 0.00 0.00 0.00 95 1007.8
20260509203554 9 151 9.7 0.0 0.00 0.00 0.00 95 1007.9
20260509203052 9 157 8.0 0.0 0.00 0.00 0.00 95 1007.9
20260509202553 9 143 6.4 0.0 0.00 0.00 0.00 95 1008.0
20260509202050 9 132 4.8 0.0 0.00 0.00 0.00 95 1008.0
20260509201549 9 204 4.8 0.0 0.00 0.00 0.00 95 1008.0
20260509201048 8 134 4.8 0.0 0.00 0.00 0.00 95 1008.2
20260509200547 8 205 3.2 0.0 0.00 0.00 0.00 95 1008.5
20260509200050 8 196 8.0 0.0 0.00 0.00 0.00 95 1008.5
20260509195550 8 171 9.7 0.0 0.00 0.00 0.00 95 1008.5
20260509195045 8 132 8.0 0.0 0.00 0.00 0.00 95 1008.6
20260509194544 8 153 6.4 0.0 0.00 0.00 0.00 95 1008.7
20260509194044 8 163 3.2 0.0 0.00 0.00 0.00 95 1008.7
20260509193544 8 155 6.4 0.0 0.00 0.00 0.00 95 1008.8
20260509193042 8 142 6.4 0.0 0.00 0.00 0.00 95 1008.8
20260509192542 8 130 6.4 0.0 0.00 0.00 0.00 95 1008.8
20260509192043 8 137 4.8 0.0 0.00 0.00 0.00 95 1008.8
20260509191543 8 159 4.8 0.0 0.00 0.00 0.00 95 1008.8
20260509191044 8 158 4.8 0.0 0.00 0.00 0.00 95 1008.7
20260509190545 8 158 6.4 0.0 0.00 0.00 0.00 95 1008.7
20260509190048 8 151 6.4 0.0 0.00 0.00 0.00 95 1008.7
20260509185541 8 113 8.0 0.0 0.00 0.00 0.00 95 1008.8
20260509185041 8 150 8.0 0.0 0.00 0.00 0.00 95 1008.8
20260509184540 8 130 4.8 0.0 0.00 0.00 0.00 95 1008.8
20260509184039 8 123 6.4 0.0 0.00 0.00 0.00 95 1008.9
20260509183539 8 144 8.0 0.0 0.00 0.00 0.00 95 1008.8
20260509183039 8 132 11.3 0.0 0.00 0.00 0.00 94 1008.8
20260509182538 8 126 12.9 0.0 0.00 0.00 0.00 95 1008.8
20260509182038 8 144 11.3 0.0 0.00 0.00 0.00 95 1008.8
20260509181537 8 123 9.7 0.0 0.00 0.00 0.00 95 1008.9
20260509181037 8 143 6.4 0.0 0.00 0.00 0.00 95 1008.9
20260509180537 8 142 4.8 0.0 0.00 0.00 0.00 94 1008.9
20260509180037 8 128 6.4 0.0 0.00 0.00 0.00 94 1009.0
20260509175536 8 126 8.0 0.0 0.00 0.00 0.00 94 1009.1
20260509175036 8 123 4.8 0.0 0.00 0.00 0.00 94 1009.0
20260509174538 8 160 4.8 0.0 0.00 0.00 0.00 94 1009.0
20260509174035 8 163 4.8 0.0 0.00 0.00 0.00 94 1009.2
20260509173534 8 134 3.2 0.0 0.00 0.00 0.00 94 1009.2
20260509173055 8 161 4.8 0.0 0.00 0.00 0.00 94 1009.3
20260509172533 8 143 6.4 0.0 0.00 0.00 0.00 94 1009.4
20260509172035 8 140 4.8 0.0 0.00 0.00 0.00 94 1009.3
20260509171539 8 49 3.2 0.0 0.00 0.00 0.00 95 1009.4
20260509171032 8 142 6.4 0.0 0.00 0.00 0.00 95 1009.4
20260509170531 7 118 8.0 0.0 0.00 0.00 0.00 95 1009.4
20260509170032 7 144 8.0 0.0 0.00 0.00 0.00 95 1009.6
20260509165529 7 134 4.8 0.0 0.00 0.00 0.00 95 1009.6
20260509165028 7 123 3.2 0.0 0.00 0.00 0.00 94 1009.8
20260509164528 7 136 3.2 0.0 0.00 0.00 0.00 94 1009.9
20260509164026 7 230 1.6 0.0 0.00 0.00 0.00 93 1009.9
20260509163526 7 220 3.2 0.0 0.00 0.00 0.00 94 1010.1
20260509163026 7 225 3.2 0.0 0.00 0.00 0.00 93 1010.2
20260509162526 7 223 1.6 0.0 0.00 0.00 0.00 94 1010.1
20260509162026 7 157 3.2 0.0 0.00 0.00 0.00 95 1010.0
20260509161525 7 144 9.7 0.0 0.00 0.00 0.00 95 1010.0
20260509161024 7 138 14.5 0.0 0.00 0.00 0.00 94 1010.1
20260509160524 7 150 17.7 0.0 0.00 0.00 0.00 95 1010.2
20260509160024 7 138 14.5 0.0 0.00 0.00 0.00 94 1010.2
20260509155521 7 137 12.9 0.0 0.00 0.00 0.00 94 1010.3
20260509155021 7 146 11.3 0.0 0.00 0.00 0.00 94 1010.6
20260509154520 7 136 6.4 0.0 0.00 0.00 0.00 94 1010.6
20260509154018 6 196 1.6 0.0 0.00 0.00 0.00 93 1010.9
20260509153518 6 178 1.6 0.0 0.00 0.00 0.00 93 1010.9
20260509153029 6 244 1.6 0.0 0.00 0.00 0.00 93 1010.9
20260509152518 6 159 1.6 0.0 0.00 0.00 0.00 94 1010.9
20260509152017 6 146 1.6 0.0 0.00 0.00 0.00 93 1010.8
20260509151516 6 198 0.0 0.0 0.00 0.00 0.00 93 1010.8
20260509151020 6 215 1.6 0.0 0.00 0.00 0.00 93 1011.0
20260509150516 6 215 1.6 0.0 0.00 0.00 0.00 93 1011.0
20260509150016 6 153 3.2 0.0 0.00 0.00 0.00 93 1011.0
20260509145516 6 136 3.2 0.0 0.00 0.00 0.00 93 1010.9
20260509145016 6 118 3.2 0.0 0.00 0.00 0.00 93 1011.0
20260509144516 6 230 3.2 0.0 0.00 0.00 0.00 92 1011.1
20260509144015 6 199 4.8 0.0 0.00 0.00 0.00 92 1010.9
20260509143522 6 137 4.8 0.0 0.00 0.00 0.00 93 1010.9
20260509143018 6 148 1.6 0.0 0.00 0.00 0.00 93 1010.9
20260509142514 6 157 1.6 0.0 0.00 0.00 0.00 92 1010.9
20260509142014 6 156 3.2 0.0 0.00 0.00 0.00 92 1011.0
20260509141514 6 161 1.6 0.0 0.00 0.00 0.00 92 1010.9
20260509141018 6 139 1.6 0.0 0.00 0.00 0.00 93 1010.9
20260509140515 6 186 1.6 0.0 0.00 0.00 0.00 93 1010.9
20260509140015 6 147 3.2 0.0 0.00 0.00 0.00 92 1010.9
20260509135513 6 154 3.2 0.0 0.00 0.00 0.00 92 1010.9
20260509135014 6 140 1.6 0.0 0.00 0.00 0.00 92 1010.9
20260509134512 6 148 1.6 0.0 0.00 0.00 0.00 92 1010.9
20260509134011 6 215 0.0 0.0 0.00 0.00 0.00 91 1010.9
20260509133510 6 215 0.0 0.0 0.00 0.00 0.00 91 1011.0
20260509133010 6 215 0.0 0.0 0.00 0.00 0.00 90 1011.2
20260509132510 6 215 0.0 0.0 0.00 0.00 0.00 90 1011.2
20260509132010 6 219 0.0 0.0 0.00 0.00 0.00 90 1011.3
20260509131510 6 219 0.0 0.0 0.00 0.00 0.00 90 1011.3
20260509131010 6 219 0.0 0.0 0.00 0.00 0.00 89 1011.3
20260509130512 6 192 0.0 0.0 0.00 0.00 0.00 89 1011.2
20260509130030 6 140 0.0 0.0 0.00 0.00 0.00 89 1011.2
20260509125510 6 219 0.0 0.0 0.00 0.00 0.00 88 1011.2
20260509125009 6 209 0.0 0.0 0.00 0.00 0.00 87 1011.1
20260509124525 6 217 0.0 0.0 0.00 0.00 0.00 88 1011.2
20260509124008 6 217 3.2 0.0 0.00 0.00 0.00 87 1011.1
20260509123508 6 133 3.2 0.0 0.00 0.00 0.00 87 1011.1
20260509123010 6 108 1.6 0.0 0.00 0.00 0.00 87 1011.2
20260509122505 6 187 1.6 0.0 0.00 0.00 0.00 87 1011.1
20260509122006 6 134 3.2 0.0 0.00 0.00 0.00 86 1011.1
20260509121504 6 142 1.6 0.0 0.00 0.00 0.00 86 1011.3
20260509121004 5 147 1.6 0.0 0.00 0.00 0.00 85 1011.3
20260509120503 5 119 3.2 0.0 0.00 0.00 0.00 85 1011.3
20260509120007 5 54 3.2 0.0 0.00 0.00 0.00 85 1011.3
20260509115501 5 57 3.2 0.0 0.00 0.00 0.00 85 1011.7
20260509115005 5 53 3.2 0.0 0.00 0.00 0.00 86 1011.7
20260509114501 5 101 3.2 0.0 0.00 0.00 0.00 86 1011.7
20260509114100 5 101 3.2 0.0 0.00 0.00 0.00 85 1011.8
20260509113600 5 93 3.2 0.0 0.00 0.00 0.00 86 1011.8
20260509113134 5 92 3.2 0.0 0.00 0.00 0.00 86 1011.7
20260509112600 5 86 4.8 0.0 0.00 0.00 0.00 87 1011.7
20260509112058 5 98 8.0 0.0 0.00 0.00 0.00 88 1011.8
20260509111557 4 53 8.0 0.0 0.00 0.00 0.00 90 1011.8
20260509111056 3 26 6.4 0.0 0.00 0.00 0.00 93 1011.9
20260509110554 2 5 1.6 0.0 0.00 0.00 0.00 94 1011.9
20260509110059 2 134 1.6 0.0 0.00 0.00 0.00 93 1011.7
20260509105551 2 138 3.2 0.0 0.00 0.00 0.00 92 1011.6
20260509105052 2 138 1.6 0.0 0.00 0.00 0.00 92 1011.3
20260509104551 1 137 0.0 0.0 0.00 0.00 0.00 92 1011.3
20260509104050 1 137 0.0 0.0 0.00 0.00 0.00 92 1011.4
20260509103549 1 137 3.2 0.0 0.00 0.00 0.00 92 1011.3
20260509103050 1 138 6.4 0.0 0.00 0.00 0.00 92 1011.2
20260509102548 1 135 6.4 0.0 0.00 0.00 0.00 92 1011.1
20260509102047 1 126 6.4 0.0 0.00 0.00 0.00 92 1011.2
20260509101558 1 139 6.4 0.0 0.00 0.00 0.00 92 1011.4
20260509101047 1 136 6.4 0.0 0.00 0.00 0.00 92 1011.5
20260509100546 1 133 4.8 0.0 0.00 0.00 0.00 92 1011.5
20260509100046 1 135 1.6 0.0 0.00 0.00 0.00 92 1011.5
20260509095546 1 136 1.6 0.0 0.00 0.00 0.00 91 1011.6
20260509095046 1 136 3.2 0.0 0.00 0.00 0.00 91 1011.7
20260509094546 1 128 3.2 0.0 0.00 0.00 0.00 92 1011.5
20260509094045 1 128 4.8 0.0 0.00 0.00 0.00 92 1011.3
20260509093545 1 127 4.8 0.0 0.00 0.00 0.00 92 1011.5
20260509093046 0 360 4.8 0.0 0.00 0.00 0.00 92 1011.4
20260509092545 0 360 4.8 0.0 0.00 0.00 0.00 92 1011.6
20260509092044 0 360 4.8 0.0 0.00 0.00 0.00 92 1011.7
20260509091545 0 360 6.4 0.0 0.00 0.00 0.00 92 1011.7
20260509091045 0 360 6.4 0.0 0.00 0.00 0.00 92 1011.7
20260509090544 0 360 6.4 0.0 0.00 0.00 0.00 92 1011.7
20260509090045 0 360 4.8 0.0 0.00 0.00 0.00 92 1011.8
20260509085543 0 360 4.8 0.0 0.00 0.00 0.00 92 1011.9
20260509085047 0 360 4.8 0.0 0.00 0.00 0.00 91 1011.7
20260509084544 0 360 4.8 0.0 0.00 0.00 0.00 91 1011.7
20260509084043 0 360 4.8 0.0 0.00 0.00 0.00 91 1011.7
20260509083545 0 360 4.8 0.0 0.00 0.00 0.00 91 1011.7
20260509083044 0 360 4.8 0.0 0.00 0.00 0.00 91 1011.7
20260509082541 0 360 6.4 0.0 0.00 0.00 0.00 90 1011.8
20260509082041 0 360 8.0 0.0 0.00 0.00 0.00 90 1011.7
20260509081541 0 145 6.4 0.0 0.00 0.00 0.00 90 1011.7
20260509081043 0 138 6.4 0.0 0.00 0.00 0.00 90 1011.6
20260509080541 0 136 6.4 0.0 0.00 0.00 0.00 90 1011.5
20260509080044 0 154 6.4 0.0 0.00 0.00 0.00 89 1011.4
20260509075538 0 138 6.4 0.0 0.00 0.00 0.00 89 1011.5
20260509075038 0 138 6.4 0.0 0.00 0.00 0.00 89 1011.4
20260509074539 0 141 6.4 0.0 0.00 0.00 0.00 89 1011.4
20260509074040 0 142 8.0 0.0 0.00 0.00 0.00 89 1011.4
20260509073536 0 143 8.0 0.0 0.00 0.00 0.00 89 1011.3
20260509073041 0 144 8.0 0.0 0.00 0.00 0.00 88 1011.4
20260509072538 0 144 6.4 0.0 0.00 0.00 0.00 89 1011.3
20260509072036 0 360 6.4 0.0 0.00 0.00 0.00 89 1011.3
20260509071533 0 360 4.8 0.0 0.00 0.00 0.00 89 1011.3
20260509071031 0 360 3.2 0.0 0.00 0.00 0.00 89 1011.4
20260509070531 0 360 3.2 0.0 0.00 0.00 0.00 88 1011.4
20260509070031 0 360 4.8 0.0 0.00 0.00 0.00 88 1011.4
20260509065531 0 360 3.2 0.0 0.00 0.00 0.00 88 1011.4
20260509065030 0 360 3.2 0.0 0.00 0.00 0.00 88 1011.4
20260509064530 1 360 3.2 0.0 0.00 0.00 0.00 88 1011.3
20260509064032 1 360 4.8 0.0 0.00 0.00 0.00 88 1011.3
20260509063529 1 360 4.8 0.0 0.00 0.00 0.00 87 1011.5
20260509063034 1 360 4.8 0.0 0.00 0.00 0.00 87 1011.5
20260509062527 1 360 4.8 0.0 0.00 0.00 0.00 88 1011.6
20260509062027 1 360 4.8 0.0 0.00 0.00 0.00 88 1011.7
20260509061530 1 360 4.8 0.0 0.00 0.00 0.00 87 1011.9
20260509061026 1 360 4.8 0.0 0.00 0.00 0.00 88 1012.0
20260509060526 1 360 4.8 0.0 0.00 0.00 0.00 89 1011.9
20260509060026 1 360 4.8 0.0 0.00 0.00 0.00 89 1012.0
20260509055525 1 360 4.8 0.0 0.00 0.00 0.00 89 1012.0
20260509055025 1 360 4.8 0.0 0.00 0.00 0.00 91 1012.0
20260509054524 1 360 3.2 0.0 0.00 0.00 0.00 90 1012.0
20260509054027 0 360 3.2 0.0 0.00 0.00 0.00 88 1012.1
20260509053523 0 360 4.8 0.0 0.00 0.00 0.00 88 1012.1
20260509053023 0 360 4.8 0.0 0.00 0.00 0.00 88 1012.2
20260509052523 0 360 4.8 0.0 0.00 0.00 0.00 88 1012.2
20260509052022 0 360 4.8 0.0 0.00 0.00 0.00 87 1012.3
20260509051523 0 360 4.8 0.0 0.00 0.00 0.00 87 1012.3
20260509051021 1 360 4.8 0.0 0.00 0.00 0.00 87 1012.3
20260509050522 1 360 4.8 0.0 0.00 0.00 0.00 86 1012.3
20260509050025 1 360 4.8 0.0 0.00 0.00 0.00 86 1012.2
20260509045518 1 360 4.8 0.0 0.00 0.00 0.00 86 1012.1
20260509045018 1 360 4.8 0.0 0.00 0.00 0.00 86 1012.2
20260509044517 1 360 3.2 0.0 0.00 0.00 0.00 87 1012.2
20260509044016 1 360 3.2 0.0 0.00 0.00 0.00 87 1012.1
20260509043515 1 360 4.8 0.0 0.00 0.00 0.00 86 1012.1
20260509043014 1 360 6.4 0.0 0.00 0.00 0.00 85 1012.0
20260509042514 1 360 6.4 0.0 0.00 0.00 0.00 86 1011.9
20260509042013 1 360 6.4 0.0 0.00 0.00 0.00 85 1011.8
20260509041519 1 360 6.4 0.0 0.00 0.00 0.00 85 1011.8
20260509041012 1 360 6.4 0.0 0.00 0.00 0.00 85 1011.8
20260509040514 1 360 6.4 0.0 0.00 0.00 0.00 85 1011.8
20260509040010 1 360 6.4 0.0 0.00 0.00 0.00 85 1011.8
20260509035509 1 360 8.0 0.0 0.00 0.00 0.00 85 1011.7
20260509035009 1 360 6.4 0.0 0.00 0.00 0.00 84 1011.7
20260509034509 1 360 6.4 0.0 0.00 0.00 0.00 84 1011.7
20260509034012 2 360 8.0 0.0 0.00 0.00 0.00 84 1011.6
20260509033508 2 360 8.0 0.0 0.00 0.00 0.00 83 1011.6
20260509033009 2 139 8.0 0.0 0.00 0.00 0.00 83 1011.5
20260509032508 2 140 8.0 0.0 0.00 0.00 0.00 83 1011.5
20260509032007 2 137 8.0 0.0 0.00 0.00 0.00 83 1011.5
20260509031521 2 138 8.0 0.0 0.00 0.00 0.00 82 1011.5
20260509031008 2 137 8.0 0.0 0.00 0.00 0.00 82 1011.5
20260509030508 2 138 8.0 0.0 0.00 0.00 0.00 82 1011.6
20260509030009 2 134 9.7 0.0 0.00 0.00 0.00 82 1011.6
20260509025507 2 136 9.7 0.0 0.00 0.00 0.00 81 1011.7
20260509025006 2 136 8.0 0.0 0.00 0.00 0.00 80 1011.7
20260509024506 3 138 8.0 0.0 0.00 0.00 0.00 79 1011.6
20260509024006 3 142 8.0 0.0 0.00 0.00 0.00 78 1011.5
20260509023506 3 142 8.0 0.0 0.00 0.00 0.00 79 1011.5
20260509023005 3 142 8.0 0.0 0.00 0.00 0.00 78 1011.5
20260509022504 3 142 6.4 0.0 0.00 0.00 0.00 77 1011.5
20260509022005 3 139 6.4 0.0 0.00 0.00 0.00 77 1011.5
20260509021506 4 136 6.4 0.0 0.00 0.00 0.00 76 1011.4
20260509021004 4 136 6.4 0.0 0.00 0.00 0.00 74 1011.3
20260509020503 5 139 4.8 0.0 0.00 0.00 0.00 75 1011.4
20260509020003 5 125 4.8 0.0 0.00 0.00 0.00 73 1011.4
20260509015505 5 142 6.4 0.0 0.00 0.00 0.00 72 1011.4
20260509015003 5 147 6.4 0.0 0.00 0.00 0.00 71 1011.3
20260509014505 5 150 4.8 0.0 0.00 0.00 0.00 71 1011.3
20260509014102 6 197 3.2 0.0 0.00 0.00 0.00 71 1011.2
20260509013600 6 214 1.6 0.0 0.00 0.00 0.00 71 1011.1
20260509013103 6 214 0.0 0.0 0.00 0.00 0.00 70 1011.1
20260509012600 6 214 1.6 0.0 0.00 0.00 0.00 69 1011.1
20260509012059 7 214 1.6 0.0 0.00 0.00 0.00 68 1011.0
20260509011559 7 214 1.6 0.0 0.00 0.00 0.00 68 1011.0
20260509011058 7 217 3.2 0.0 0.00 0.00 0.00 67 1010.8
20260509010557 8 225 8.0 0.0 0.00 0.00 0.00 65 1010.6
20260509005556 8 245 16.1 0.0 0.00 0.00 0.00 66 1010.4
20260509005057 8 256 14.5 0.0 0.00 0.00 0.00 64 1010.3
20260509004608 8 271 16.1 0.0 0.00 0.00 0.00 64 1010.2
20260509004058 8 261 17.7 0.0 0.00 0.00 0.00 63 1010.2
20260509003559 8 256 19.3 0.0 0.00 0.00 0.00 62 1010.1
20260509003102 8 265 20.9 0.0 0.00 0.00 0.00 63 1010.1
20260509002555 8 259 20.9 0.0 0.00 0.00 0.00 63 1010.1
20260509002056 9 265 22.5 0.0 0.00 0.00 0.00 63 1010.0
20260509001555 9 267 22.5 0.0 0.00 0.00 0.00 62 1009.9
20260509001055 9 269 22.5 0.0 0.00 0.00 0.00 64 1009.8
20260509000554 9 263 20.9 0.0 0.00 0.00 0.00 63 1009.8
20260509000054 9 271 20.9 0.0 0.00 0.00 0.00 60 1009.9
20260508235555 9 251 20.9 0.0 0.00 0.00 0.00 60 1009.8
20260508235056 10 261 19.3 0.0 0.00 0.00 0.00 63 1009.8
20260508234557 10 258 17.7 0.0 0.00 0.00 0.00 60 1009.7
20260508234055 10 266 17.7 0.0 0.00 0.00 0.00 61 1009.8
20260508233555 10 268 19.3 0.0 0.00 0.00 0.00 63 1009.8
20260508233057 10 274 20.9 0.0 0.00 0.00 0.00 61 1009.8
20260508232553 10 271 24.1 0.0 0.00 0.00 0.00 61 1009.8
20260508232057 10 277 24.1 0.0 0.00 0.00 0.00 61 1009.6
20260508231558 10 275 20.9 0.0 0.00 0.00 0.00 61 1009.6
20260508231053 10 294 16.1 0.0 0.00 0.00 0.00 60 1009.6
20260508230552 10 277 16.1 0.0 0.00 0.00 0.00 61 1009.6
20260508230124 10 283 19.3 0.0 0.00 0.00 0.00 59 1009.6
20260508225553 10 278 20.9 0.0 0.00 0.00 0.00 62 1009.5
20260508225055 10 280 24.1 0.0 0.00 0.00 0.00 63 1009.6
20260508224601 10 290 27.4 0.0 0.00 0.00 0.00 62 1009.5
20260508224052 10 275 25.7 0.0 0.00 0.00 0.00 60 1009.5
20260508223552 10 285 22.5 0.0 0.00 0.00 0.00 62 1009.4
20260508223052 10 290 22.5 0.0 0.00 0.00 0.00 60 1009.5
20260508222552 10 256 22.5 0.0 0.00 0.00 0.00 63 1009.4
20260508222052 10 269 20.9 0.0 0.00 0.00 0.00 62 1009.4
20260508221552 10 267 19.3 0.0 0.00 0.00 0.00 62 1009.3
20260508221051 10 263 19.3 0.0 0.00 0.00 0.00 61 1009.4
20260508220552 10 253 19.3 0.0 0.00 0.00 0.00 61 1009.4
20260508220117 10 258 20.9 0.0 0.00 0.00 0.00 64 1009.4
20260508215551 10 265 22.5 0.0 0.00 0.00 0.00 64 1009.4
20260508215051 10 273 22.5 0.0 0.00 0.00 0.00 63 1009.4
20260508214556 11 259 22.5 0.0 0.00 0.00 0.00 61 1009.4
20260508214050 11 271 17.7 0.0 0.00 0.00 0.00 62 1009.4
20260508213550 11 263 14.5 0.0 0.00 0.00 0.00 62 1009.4
20260508213054 11 246 17.7 0.0 0.00 0.00 0.00 63 1009.6
20260508212550 10 244 19.3 0.0 0.00 0.00 0.00 64 1009.6
20260508212050 10 251 20.9 0.0 0.00 0.00 0.00 66 1009.5
20260508211552 10 262 20.9 0.0 0.00 0.00 0.00 66 1009.5
20260508211050 10 286 20.9 0.0 0.00 0.00 0.00 65 1009.6
20260508210550 10 280 22.5 0.0 0.00 0.00 0.00 68 1009.5
20260508210050 10 290 24.1 0.0 0.00 0.00 0.00 68 1009.5
20260508205549 9 252 25.7 0.0 0.00 0.00 0.00 67 1009.5
20260508205049 9 283 30.6 0.0 0.00 0.00 0.00 66 1009.6
20260508204600 9 292 33.8 0.0 0.00 0.00 0.00 68 1009.5